Wind_Speed
25 26 25 23 20 17 15 14 12 11 10 8 5 2 1 2 4 6 7 6 7 7 7 7 8 9 9 8 7 6 5 5 4 4 5 5 6 6 7 7 8 9 9 10 11 12 13 13 13
26 27 27 27 24 20 18 16 14 12 11 8 5 2 1 3 5 7 7 6 7 7 6 6 7 7 7 6 6 5 4 3 3 3 4 4 4 4 5 5 6 7 8 8 9 10 10 11 11
26 28 30 30 27 23 19 18 16 13 10 8 5 2 2 4 5 8 7 6 6 6 5 6 6 5 5 5 5 5 4 3 2 2 2 2 2 3 3 4 4 5 6 7 7 8 8 9 9
24 28 30 31 30 26 22 20 18 15 13 10 6 3 2 4 6 7 6 5 5 5 5 5 4 4 5 5 5 5 4 4 3 2 1 0 1 1 2 3 3 5 6 6 7 7 7 8 9
24 27 30 32 32 29 26 22 20 18 16 12 8 4 2 4 5 6 5 4 4 4 4 4 3 4 4 5 5 5 6 5 4 3 3 2 2 2 2 3 3 4 6 7 8 8 8 9 9
25 24 26 28 32 32 29 26 23 21 18 15 11 6 3 4 5 5 4 3 3 4 4 4 4 5 6 6 7 7 7 6 6 5 4 3 2 2 2 2 3 5 6 8 9 9 9 9 10
26 24 22 24 32 34 32 29 26 23 19 16 13 9 5 4 5 4 2 2 3 4 5 6 6 7 8 9 9 9 8 8 7 6 5 4 3 2 1 2 3 5 7 9 10 10 10 10 10
27 24 20 22 31 35 35 33 29 26 22 18 14 11 7 4 5 3 1 3 4 5 6 7 8 9 10 10 10 10 9 8 7 6 5 3 2 0 1 2 4 6 8 9 10 11 11 11 11
29 24 19 19 28 36 38 36 33 31 26 20 16 14 10 5 5 3 2 3 5 5 6 7 9 10 10 10 10 10 9 8 7 6 5 3 1 1 2 3 5 7 8 10 11 12 12 12 12
31 24 17 18 27 38 42 40 37 34 29 23 18 15 11 6 4 3 3 4 5 6 6 7 8 9 10 10 10 9 9 8 7 6 5 3 2 2 3 4 5 7 9 10 12 13 13 12 12
32 26 21 22 29 39 45 44 41 38 32 27 22 17 12 8 5 4 4 5 6 6 6 7 8 8 9 9 9 9 9 8 7 6 5 4 4 4 4 5 6 8 9 11 13 13 13 12 12
32 28 25 25 30 38 46 46 44 41 34 30 25 20 15 10 7 6 6 7 7 6 7 7 8 8 8 9 9 9 9 8 7 7 6 6 6 5 5 6 7 8 9 11 12 13 13 12 11
33 30 28 27 30 35 44 47 45 41 36 31 27 22 16 12 10 10 9 8 8 7 8 8 9 9 9 9 9 9 9 9 8 8 8 7 7 7 7 8 9 9 10 11 12 12 13 13 12
34 32 29 28 29 32 40 46 46 41 37 33 29 24 20 16 13 12 10 9 9 9 10 10 11 11 10 10 10 10 10 9 9 9 8 8 8 8 9 9 10 11 12 13 12 13 14 14 13
34 32 29 27 29 31 36 42 44 41 38 35 31 28 24 19 16 14 12 11 11 12 12 12 13 12 12 11 11 11 11 10 10 10 9 9 9 9 10 11 12 12 13 13 13 13 14 14 13
34 32 29 27 28 31 34 38 41 42 40 37 34 31 27 23 19 16 15 14 13 14 14 14 14 13 14 13 13 12 12 11 11 11 11 11 12 12 12 13 14 14 15 15 15 15 15 15 14
33 32 30 27 27 30 32 35 39 41 41 39 36 33 29 26 23 19 16 15 14 16 17 15 16 16 16 16 15 14 14 14 14 14 14 15 15 16 16 17 17 17 17 17 17 17 17 17 16
33 32 30 28 28 29 30 32 36 39 40 39 37 34 30 27 24 20 18 16 16 17 19 19 18 18 18 18 18 17 17 17 17 17 18 19 19 19 20 20 21 21 21 20 19 20 20 19 19
32 31 30 29 29 29 29 31 34 36 37 38 37 34 30 27 25 22 20 18 17 17 16 16 18 19 20 20 19 19 20 21 21 22 22 22 23 23 23 24 24 25 24 23 23 23 22 21 21
30 30 29 29 29 29 30 30 33 36 36 35 35 34 31 28 26 25 22 20 19 16 15 14 15 18 21 21 21 23 23 23 23 23 24 25 25 26 27 28 28 28 27 26 25 25 24 24 23
29 29 28 28 29 28 27 28 31 34 35 34 34 34 32 30 27 25 24 22 19 17 16 16 16 18 21 22 23 24 25 26 25 24 25 26 27 28 29 29 28 28 28 27 27 28 25 25 25
28 28 28 28 30 29 27 26 28 30 32 32 32 33 33 31 28 27 25 24 21 19 19 19 19 19 21 23 25 26 26 26 27 28 27 28 29 30 30 30 30 29 29 29 28 27 27 26 26
26 28 28 29 29 29 28 26 26 27 29 30 30 30 31 31 29 27 27 25 23 23 23 23 23 24 25 27 29 29 29 30 31 30 30 29 29 29 31 32 32 30 29 29 29 28 28 28 29
27 29 29 30 30 29 28 28 28 28 28 28 29 29 30 31 30 29 28 27 27 26 26 25 26 26 28 30 31 32 32 33 33 33 32 31 30 30 32 33 31 30 30 30 31 31 30 30 31
27 28 29 30 30 30 29 29 30 30 30 30 30 30 31 32 32 31 31 31 31 30 30 29 29 30 31 34 34 34 36 37 36 36 34 33 32 32 34 33 32 32 32 32 33 33 33 33 34
26 27 28 29 30 30 30 31 31 31 32 32 32 32 33 33 33 33 32 32 32 31 32 32 32 34 35 37 38 39 40 40 39 39 38 35 35 35 33 34 34 34 34 34 35 35 36 36 37
24 26 27 28 29 30 32 32 33 33 34 34 34 35 35 35 35 35 35 35 34 35 36 37 37 38 40 41 41 41 41 40 40 40 39 37 36 35 35 36 36 36 36 37 38 38 38 39 40
23 25 27 28 28 29 32 33 33 34 34 36 37 37 38 39 39 39 39 39 39 40 41 42 42 42 43 44 44 45 45 44 44 42 40 39 38 37 38 38 38 38 39 40 41 41 42 43 44
22 23 25 27 28 29 31 33 34 35 36 37 37 38 39 40 41 41 41 42 43 43 44 45 45 46 46 45 45 46 46 45 44 42 41 41 41 40 41 41 41 42 43 43 44 46 47 48 48
21 22 23 25 26 28 30 32 34 36 37 38 38 39 41 42 43 43 44 44 44 44 45 46 47 48 48 48 47 46 45 45 45 45 44 44 43 43 44 45 46 48 48 48 48 50 51 52 52
Wind_Direction
217 209 202 200 202 208 217 217 215 208 197 189 169 143 31 328 314 308 296 283 269 265 266 266 264 261 258 256 253 255 257 258 259 261 265 273 283 293 301 307 309 310 310 309 307 307 306 306 306
222 212 205 202 202 202 213 218 217 213 209 206 200 195 326 331 320 316 304 289 275 264 263 262 258 255 251 245 242 239 235 240 250 260 271 281 291 301 310 315 313 313 312 311 311 310 310 310 310
229 219 209 203 200 199 208 218 219 216 218 216 214 228 312 335 329 315 302 289 275 260 255 252 248 243 235 228 221 210 204 207 222 244 273 294 309 319 324 325 320 316 313 311 311 312 312 313 312
235 225 216 206 199 198 205 216 220 219 221 222 221 226 302 331 335 320 302 281 266 251 244 239 232 222 214 205 192 183 178 173 169 166 168 76 14 8 2 353 338 328 321 318 316 314 312 311 309
241 232 223 211 202 200 204 213 219 221 224 226 231 238 295 322 329 321 297 270 250 236 230 214 197 189 181 170 163 157 151 149 150 148 141 119 83 58 40 15 353 337 328 324 321 317 313 309 306
241 240 233 219 204 203 205 212 218 222 226 230 234 237 272 319 325 317 295 253 227 209 200 180 166 157 150 143 141 140 141 145 147 145 138 124 102 76 46 14 346 329 321 318 319 318 316 312 305
240 244 241 224 207 205 206 212 219 223 226 231 233 235 251 308 316 316 288 209 189 181 175 160 151 145 140 138 138 139 143 147 148 145 138 130 119 92 42 358 332 320 317 317 316 315 313 308 302
237 242 243 227 210 205 208 212 219 224 226 229 233 236 245 285 306 302 236 169 160 163 161 155 146 142 141 142 142 143 145 148 149 148 146 144 142 105 338 324 318 315 315 316 316 314 310 302 295
235 239 243 228 211 204 208 213 218 225 228 228 231 238 246 267 289 281 205 161 155 156 158 157 151 148 148 147 147 150 154 156 159 161 163 166 187 255 291 304 308 309 312 317 318 318 314 302 291
233 236 237 224 210 203 208 213 218 224 226 226 228 232 238 256 270 253 193 163 161 161 162 164 161 160 160 159 159 162 165 168 173 176 184 200 221 243 263 286 301 307 311 317 321 324 319 310 295
231 231 229 220 210 205 209 213 218 223 224 225 226 229 235 244 247 234 196 173 173 172 175 174 174 173 173 174 175 176 176 179 184 189 197 209 222 240 260 279 294 304 308 314 321 324 322 315 304
229 228 227 222 215 209 210 214 218 222 223 226 226 231 234 234 235 226 199 183 184 194 197 194 190 189 186 185 185 187 189 189 194 196 200 210 224 242 262 276 288 300 309 312 317 320 320 318 311
225 225 225 223 219 215 212 215 219 221 222 226 228 231 234 228 225 221 203 194 198 208 212 211 204 203 199 194 194 197 199 199 203 205 209 216 228 242 257 274 286 296 308 311 312 318 319 317 310
221 223 224 224 222 219 214 215 219 220 224 227 229 229 233 232 229 223 213 207 213 218 221 220 212 213 211 207 205 204 203 204 207 212 220 228 238 248 259 271 283 292 304 310 309 313 317 318 314
220 221 223 225 223 221 217 216 219 220 225 228 230 232 232 234 233 224 215 216 218 221 226 230 223 223 222 221 220 219 216 216 219 224 231 240 249 258 267 275 283 290 298 304 304 306 311 315 313
219 219 222 223 222 220 218 215 218 221 226 229 232 233 233 234 231 221 215 215 222 225 230 235 232 233 233 232 230 230 232 235 239 245 252 257 262 267 272 280 285 289 294 297 299 300 302 306 307
218 217 219 221 220 220 217 213 217 221 226 231 234 235 234 232 228 222 219 221 226 228 233 237 234 236 239 240 239 238 242 248 253 258 264 269 272 275 278 281 284 287 290 292 293 294 296 297 298
216 214 215 218 219 219 217 212 217 223 227 231 233 234 232 231 228 227 226 224 227 229 233 235 239 241 245 247 249 252 253 257 262 264 270 274 274 277 281 283 285 284 285 285 286 290 292 291 290
215 213 212 215 219 220 218 214 216 224 228 230 232 233 232 231 227 227 229 229 230 229 233 239 241 247 252 252 256 262 267 265 267 267 269 275 277 279 282 283 282 281 281 281 281 284 285 285 286
214 213 212 214 219 222 222 220 220 225 230 232 233 232 231 229 229 228 229 231 234 237 243 244 246 250 255 259 261 264 269 269 271 270 272 277 279 281 283 285 281 278 278 279 281 283 281 281 282
214 213 212 213 217 222 224 225 225 227 231 234 235 233 231 229 228 227 228 231 232 235 239 241 250 256 257 262 266 277 275 274 277 278 276 278 281 284 285 285 283 279 280 281 281 282 281 281 280
213 212 211 212 216 220 222 223 226 228 230 232 233 232 230 229 227 228 231 232 235 239 242 248 254 260 264 268 271 275 274 274 277 278 280 284 284 282 284 284 285 282 282 281 282 281 284 284 281
209 211 211 212 216 220 221 221 221 223 224 226 227 228 228 228 230 231 233 237 238 241 246 251 256 261 264 269 272 274 280 279 279 281 284 286 287 287 288 286 285 282 283 283 283 281 283 283 282
209 212 213 212 215 218 219 219 218 220 222 224 225 225 225 227 230 231 235 240 242 244 248 255 258 264 268 271 274 277 278 281 282 283 286 289 290 290 288 289 285 284 284 284 280 281 282 283 282
209 211 212 213 215 218 218 220 221 221 222 224 224 225 227 229 231 235 237 240 244 248 252 256 260 266 269 273 276 277 278 283 286 290 294 293 291 291 290 289 287 285 285 282 280 281 281 281 282
209 211 212 214 217 218 219 222 223 223 225 227 228 230 232 234 237 240 242 245 249 254 257 259 262 266 269 272 274 279 282 284 288 292 294 295 294 292 288 289 287 285 283 280 282 283 283 283 284
208 211 213 217 219 221 222 225 227 227 228 230 232 235 238 240 243 247 249 252 254 256 259 262 264 266 269 273 276 279 280 283 288 292 294 293 292 291 288 287 285 283 282 282 283 284 284 284 285
208 212 215 218 221 224 226 228 230 231 233 234 237 240 243 246 248 251 254 256 258 260 262 263 266 269 271 273 276 278 281 283 288 290 291 290 290 287 286 285 283 284 283 283 283 284 285 286 286
209 215 219 222 225 228 231 233 235 236 238 240 242 244 247 250 253 256 259 261 263 264 264 265 265 267 269 271 274 277 280 282 284 286 287 286 286 286 285 284 284 285 285 284 284 285 287 287 287
215 219 224 227 229 232 235 238 239 242 244 245 248 250 253 255 257 260 263 265 265 266 267 267 266 267 268 270 273 276 278 280 282 283 284 284 283 284 284 284 285 286 286 285 285 285 287 287 287
Height
5868 5871 5875 5878 5881 5882 5883 5884 5884 5884 5885 5885 5886 5887 5888 5890 5891 5893 5892 5891 5890 5891 5891 5891 5892 5893 5893 5894 5894 5895 5896 5897 5899 5900 5901 5902 5903 5904 5905 5905 5905 5905 5905 5905 5906 5905 5905 5905 5905
5865 5868 5872 5875 5877 5879 5881 5881 5882 5883 5883 5884 5884 5885 5886 5887 5888 5889 5889 5889 5889 5889 5889 5890 5891 5891 5892 5892 5893 5894 5895 5896 5897 5899 5900 5901 5902 5903 5903 5904 5904 5904 5903 5904 5904 5904 5904 5904 5903
5862 5865 5868 5871 5874 5877 5879 5879 5880 5881 5882 5883 5883 5884 5884 5885 5886 5887 5887 5887 5888 5888 5888 5889 5890 5890 5891 5891 5892 5893 5894 5895 5896 5898 5899 5900 5900 5901 5902 5902 5902 5902 5901 5901 5902 5902 5902 5902 5902
5859 5861 5865 5868 5871 5874 5876 5876 5877 5879 5880 5881 5882 5882 5883 5884 5885 5886 5886 5886 5887 5887 5888 5888 5889 5889 5890 5891 5892 5893 5894 5895 5896 5897 5898 5898 5899 5900 5900 5900 5900 5900 5899 5899 5900 5900 5900 5900 5900
5855 5857 5860 5864 5868 5871 5873 5873 5875 5876 5877 5879 5880 5881 5881 5883 5884 5884 5885 5885 5886 5887 5887 5887 5888 5888 5889 5890 5891 5892 5893 5894 5895 5896 5897 5898 5898 5899 5899 5899 5899 5898 5898 5897 5897 5898 5898 5898 5898
5852 5853 5856 5860 5865 5868 5869 5870 5872 5873 5875 5877 5878 5879 5880 5882 5883 5884 5884 5884 5885 5886 5887 5887 5887 5888 5889 5890 5891 5892 5893 5894 5895 5896 5897 5897 5898 5898 5898 5898 5897 5897 5896 5896 5896 5896 5896 5896 5895
5848 5850 5852 5857 5862 5864 5867 5867 5869 5870 5872 5875 5877 5878 5879 5880 5882 5883 5883 5884 5884 5885 5886 5887 5887 5888 5889 5890 5891 5892 5893 5894 5895 5895 5896 5897 5897 5897 5897 5897 5896 5895 5895 5894 5894 5894 5894 5893 5892
5843 5847 5849 5853 5857 5862 5864 5864 5865 5867 5869 5872 5875 5876 5877 5879 5881 5882 5883 5883 5884 5885 5886 5887 5887 5888 5889 5890 5891 5892 5893 5894 5895 5895 5896 5896 5896 5896 5896 5896 5895 5894 5893 5892 5892 5892 5891 5890 5890
5839 5844 5846 5849 5853 5858 5859 5860 5862 5864 5867 5870 5872 5875 5876 5878 5879 5881 5882 5883 5884 5885 5886 5887 5887 5888 5889 5890 5891 5892 5893 5894 5894 5895 5895 5895 5895 5895 5895 5895 5894 5893 5892 5891 5890 5889 5888 5887 5886
5834 5839 5843 5845 5848 5852 5853 5855 5857 5860 5863 5867 5870 5872 5874 5876 5878 5880 5881 5883 5884 5885 5886 5887 5888 5889 5889 5890 5891 5892 5892 5893 5894 5894 5894 5894 5894 5894 5894 5893 5893 5892 5890 5889 5888 5887 5886 5884 5883
5830 5835 5837 5839 5841 5844 5846 5849 5852 5855 5860 5864 5867 5869 5871 5874 5876 5879 5880 5882 5884 5885 5886 5887 5888 5889 5889 5890 5891 5892 5892 5892 5893 5893 5893 5894 5893 5893 5893 5892 5891 5890 5889 5887 5886 5884 5883 5881 5880
5824 5828 5831 5833 5835 5838 5840 5843 5847 5851 5857 5860 5864 5866 5869 5872 5875 5877 5879 5881 5883 5885 5886 5887 5888 5889 5889 5890 5890 5891 5891 5891 5892 5892 5892 5892 5892 5892 5892 5891 5890 5888 5887 5885 5884 5882 5880 5879 5877
5818 5822 5825 5828 5830 5833 5836 5839 5842 5847 5853 5857 5861 5864 5868 5870 5872 5875 5878 5880 5882 5884 5886 5886 5887 5888 5889 5889 5890 5890 5890 5891 5891 5891 5891 5891 5891 5890 5890 5889 5888 5886 5885 5883 5882 5880 5878 5876 5875
5812 5816 5820 5823 5826 5829 5832 5836 5839 5845 5849 5853 5858 5862 5865 5868 5870 5873 5876 5879 5881 5883 5884 5885 5886 5887 5887 5888 5888 5889 5889 5889 5889 5890 5890 5890 5889 5888 5888 5887 5886 5884 5883 5882 5880 5878 5876 5874 5872
5807 5813 5817 5820 5822 5825 5829 5833 5837 5843 5846 5850 5855 5859 5862 5865 5868 5871 5874 5876 5879 5881 5882 5884 5885 5885 5886 5886 5887 5887 5887 5887 5887 5887 5887 5887 5887 5886 5886 5885 5883 5882 5880 5879 5877 5876 5874 5872 5870
5803 5809 5813 5816 5819 5822 5827 5831 5835 5839 5842 5846 5851 5855 5859 5863 5866 5868 5870 5873 5876 5878 5880 5881 5883 5883 5884 5884 5885 5885 5885 5885 5885 5885 5885 5884 5884 5883 5882 5881 5880 5879 5877 5876 5875 5873 5871 5869 5868
5798 5804 5809 5812 5816 5819 5823 5828 5831 5834 5838 5842 5847 5851 5855 5859 5862 5865 5868 5870 5872 5875 5877 5878 5879 5880 5881 5881 5882 5882 5882 5882 5882 5881 5881 5880 5879 5879 5878 5877 5876 5875 5873 5872 5871 5870 5868 5866 5865
5794 5799 5804 5808 5812 5815 5819 5825 5827 5830 5834 5838 5842 5847 5851 5855 5859 5862 5864 5867 5869 5871 5872 5874 5875 5876 5877 5878 5879 5879 5879 5877 5877 5877 5876 5875 5874 5873 5873 5872 5871 5870 5869 5867 5866 5865 5864 5862 5861
5789 5794 5800 5804 5808 5812 5816 5821 5824 5826 5830 5834 5838 5842 5847 5851 5855 5858 5861 5863 5864 5866 5868 5870 5872 5873 5873 5874 5875 5874 5873 5872 5871 5871 5870 5870 5868 5867 5866 5866 5864 5863 5862 5861 5861 5860 5858 5857 5856
5784 5790 5795 5800 5804 5808 5813 5817 5821 5823 5826 5830 5834 5838 5843 5847 5851 5854 5857 5859 5860 5862 5864 5866 5868 5869 5869 5869 5869 5869 5867 5865 5865 5865 5865 5864 5862 5861 5860 5859 5857 5856 5856 5855 5854 5853 5852 5851 5850
5780 5786 5791 5796 5800 5804 5809 5813 5817 5819 5822 5826 5829 5834 5838 5843 5846 5849 5852 5854 5856 5858 5860 5862 5863 5863 5864 5864 5864 5862 5861 5860 5860 5859 5859 5858 5856 5855 5853 5852 5850 5849 5849 5848 5848 5847 5845 5845 5844
5777 5782 5786 5791 5796 5800 5806 5809 5812 5815 5818 5822 5825 5829 5833 5837 5841 5844 5847 5849 5851 5853 5855 5856 5857 5858 5858 5858 5858 5857 5856 5855 5854 5852 5851 5850 5849 5847 5846 5845 5843 5843 5842 5841 5841 5840 5839 5838 5836
5773 5777 5782 5787 5792 5797 5801 5806 5809 5811 5814 5818 5821 5825 5829 5832 5836 5839 5842 5844 5846 5848 5850 5851 5851 5852 5852 5852 5851 5850 5849 5848 5847 5845 5844 5843 5842 5840 5839 5838 5837 5836 5835 5834 5833 5832 5831 5830 5829
5769 5774 5779 5784 5789 5794 5798 5802 5806 5808 5811 5814 5818 5821 5824 5828 5831 5834 5836 5839 5840 5842 5843 5844 5845 5845 5845 5844 5843 5842 5841 5840 5838 5836 5834 5834 5833 5832 5832 5830 5829 5828 5827 5827 5826 5824 5823 5822 5820
5767 5772 5777 5781 5785 5790 5794 5798 5802 5805 5808 5811 5814 5817 5820 5823 5826 5828 5830 5832 5834 5835 5836 5837 5837 5837 5837 5837 5836 5835 5833 5832 5830 5828 5826 5825 5824 5824 5823 5822 5821 5820 5819 5818 5817 5816 5815 5813 5811
5765 5770 5775 5779 5783 5787 5790 5793 5798 5801 5804 5807 5810 5812 5815 5818 5820 5822 5824 5825 5827 5828 5828 5829 5829 5829 5829 5829 5828 5827 5825 5822 5821 5820 5818 5817 5816 5815 5814 5814 5813 5812 5811 5810 5809 5807 5806 5804 5802
5763 5767 5772 5776 5779 5783 5786 5789 5793 5796 5799 5802 5804 5807 5809 5812 5814 5816 5817 5818 5819 5820 5821 5821 5820 5821 5820 5819 5818 5818 5815 5813 5812 5811 5809 5808 5808 5807 5807 5806 5805 5803 5802 5801 5799 5797 5795 5794 5791
5762 5765 5769 5772 5775 5778 5781 5784 5787 5790 5793 5796 5798 5801 5803 5805 5807 5809 5810 5811 5812 5812 5813 5812 5812 5811 5810 5810 5809 5808 5807 5805 5804 5803 5802 5800 5799 5799 5798 5796 5795 5793 5792 5790 5789 5787 5785 5783 5780
5760 5763 5766 5769 5771 5775 5777 5782 5782 5785 5787 5789 5791 5794 5795 5797 5799 5800 5801 5802 5803 5803 5803 5803 5803 5802 5802 5801 5800 5799 5798 5796 5795 5794 5793 5791 5790 5789 5788 5786 5784 5783 5781 5779 5777 5775 5773 5770 5768
5758 5760 5763 5766 5768 5770 5772 5777 5776 5778 5780 5782 5784 5786 5788 5789 5790 5791 5792 5793 5793 5793 5793 5793 5793 5792 5792 5791 5791 5790 5789 5787 5785 5784 5783 5781 5780 5778 5777 5775 5773 5771 5769 5767 5765 5762 5759 5757 5754